"Pseudo-MPEC" for A10DsIK

Created 2021 Nov 26 15:07:04 UT using Find_Orb

Click here for an explanation of pseudo-MPECs

 
 Astrometry: 
     A10DsIK  C2021 11 24.40655604 43 56.42 +57 40 19.7    ~BODq 18.42oVNEOCPT08
     A10DsIK  C2021 11 24.40839804 43 54.42 +57 40 02.0    ~BODq 18.56oVNEOCPT08
     A10DsIK  C2021 11 24.41118004 43 51.59 +57 39 38.2    ~BODq 18.73oVNEOCPT08
     A10DsIK  C2021 11 24.41809804 43 44.64 +57 38 33.9    ~BODq 18.57oVNEOCPT08
     A10DsIK  C2021 11 24.57493504 41 22.14 +57 08 25.3    ~BOJM 18.87oVNEOCPT05
     A10DsIK  C2021 11 24.57539204 41 21.86 +57 08 19.9    ~BOJM 18.57oVNEOCPT05
     A10DsIK  C2021 11 24.57584904 41 21.59 +57 08 14.1    ~BOJM 18.98oVNEOCPT05
     A10DsIK  C2021 11 24.57630604 41 21.21 +57 08 08.1    ~BOJM 18.78oVNEOCPT05
     A10DsIK KC2021 11 24G/'of[WP869(kv6dWolGw+\t714S-[TqcI]xZ3jp'r;#bY[1QX#\L01
     A10DsIK KC2021 11 24nRNZf[A!i8d8u=L/-BjZ8mvq(.wZ@Upi-xIMYjNH)m:XdfgKc1_!L01
     A10DsIK KC2021 11 24%\L-j$AdY8S@jGJGuL*BAb,-*2J;qK@SR(wVIAstrometryb5;;/L01
     A10DsIK KC2021 11 24,rV0s+6#(W?h?Ii?ro9%GA##E?redacted;l:Zclick!,1dYp!\xL01
     A10DsIK IC2021 11 242VAQYhereAuxmjlskgPn2o:');[jFIP!`)3J?uk:N9^@fO-wte7UL01
     A10DsIK KC2021 11 24.88408604 42 44.64 +56 19 19.3    ~BOMM       XNEOCP595
     A10DsIK KC2021 11 24.90085204 42 34.71 +56 17 41.2    ~BOMM 18.5 GXNEOCP595
     A10DsIK KC2021 11 24.90923604 42 29.57 +56 16 50.2    ~BOMM       XNEOCP595
     A10DsIK KC2021 11 24.91762304 42 24.51 +56 15 58.1    ~BOMM 18.7 GXNEOCP595
     A10DsIK KC2021 11 25H,682\b]HEKdoj9;^gTvatKIjHCU_R#khWKXsb?gDh17)oY7k@1pW34
     A10DsIK KC2021 11 25i!rf014a*32baNBZ@HMWRw6CB1UmTVeAgw9US9AfU(oweqdlNpC?W34
     A10DsIK KC2021 11 25:@Po3*%R%FOs!]M:XnI`cF(q@tF7?+^oKSY#Y-,[jYPMybjLq8G=W34
     A10DsIK KC2021 11 26O?6ZW+4(_n_rNl$/67_8?9Tc9L60e7(nV)gJqIc?.[mU9WkPp^o/734
     A10DsIK KC2021 11 268YH?oforY*,aRY5])-,FL:[@otQ;%GytWk-%0V8nS!236opC!=pp734
     A10DsIK KC2021 11 26RjeMAZ,B3Zy%h%ixq8;K9M^OwTMxKwn$Aexplanation4+n7^(q^734

Station data:
(595) Farra d'Isonzo  (N45.915734 E13.525780)  Italy.  Observers L.
   Bittesini, F. Fabris, E. Pettarin, F. Piani. Measurer E. Pettarin. 0.30-m
   f/4.5 reflector + CCD.
(734) Farpoint Observatory, Eskridge  (N38.890107 W96.001400)  US/Kansas.
   Observer G. Hug. 0.69-m reflector + CCD.
(L01) Višnjan Observatory, Tičan  (N45.290900 E13.749300)  Croatia.
   Observers K. Korlević, E. Pettarin. Measurer E. Pettarin. 1.0-m f/2.9
   reflector + CCD.
(T05) ATLAS-HKO, Haleakala  (N20.707573 W156.257010)  US/Hawaii.  Observers
   L. Denneau, A. Heinze, H. Weiland, J. Tonry, H. Flewelling, A.
   Fitzsimmons, D. Young, B. Stalder. Measurers L. Denneau, A. Heinze, J.
   Tonry. 0.5-m f/2.0 Schmidt + CCD.
(T08) ATLAS-MLO, Mauna Loa  (N19.536152 W155.576050)  US/Hawaii.  Observers
   L. Denneau, A. Heinze, H. Weiland, J. Tonry, H. Flewelling, A.
   Fitzsimmons, D. Young, B. Stalder. Measurers L. Denneau, A. Heinze, J.
   Tonry. 0.5-m f/2.0 Schmidt + CCD.
(W34) Squirrel Valley Observatory, Columbus  (N35.225393 W82.154700)
   US/North Carolina.  Observer R. L. Flynn. 0.35-m f/1.9 Schmidt-Cassegrain
   + CCD.

Orbital elements:  A10DsIK
   Perihelion 2021 Oct 4.632552 +/- 0.00134221 TT = 15:10:52 (JD 2459492.132552)
Epoch 2021 Nov 26.0 TT = JDT 2459544.5   Earth MOID: 0.0011   AutoNEOCP
M  44.38279171 +/- 0.0049728        (J2000 ecliptic)
n   0.84752634 +/- 7.4419e-5        Peri.  306.51062 +/- 0.0028279
a   1.10586109 +/- 6.47338e-5       Node    58.32197 +/- 0.0012797
e   0.1579831 +/- 7.41746e-5        Incl.    3.84414 +/- 0.0018269
P   1.16/424.76d           H 27.9   G  0.15   U  6.4  
q 0.93115372 +/- 2.75469e-5    Q 1.28056846 +/- 0.000156972
From 23 observations 2021 Nov. 24-26 (44.3 hr); mean residual 0".47
Residuals in arcseconds: 
211124 T08  .09-  .19-    211124 L01  .21-  .08+    211124 595  .02+  .03-    
211124 T08  1.1-  1.2-    211124 L01  .03-  .05+    211125 W34  .70+  .11-    
211124 T08  .99-  .35+    211124 L01  .25+  .08-    211125 W34  .02+  .47-    
211124 T08  .06+  .11+    211124 L01  .23+  .01+    211125 W34  .40+  .74-    
211124 T05  .04+  .04-    211124 L01  .15+  .09-    211126 734  .47+  .40+    
211124 T05  .36+  .57+    211124 595  .46+  .07-    211126 734  .30-  .41+    
211124 T05  .76+  .78+    211124 595  .01-  .16+    211126 734  .88-  .45-    
211124 T05  .26+  .80+    211124 595  .63-  .02+    

Ephemerides (geocentric):
Date (UTC) HH   RA              Dec         delta   r     elong  mag " sig PA
---- -- -- --  -------------   -----------  ------ ------ -----  --- ---- ---
2021 11 26 15  04 39 19.127   +53 48 22.37  .01378 0.9984 146.7 20.0 .218  49
2021 11 26 16  04 39 16.630   +53 45 58.74  .01389 0.9985 146.7 20.0 .227  47
2021 11 26 17  04 39 14.169   +53 43 37.25  .01400 0.9986 146.8 20.0 .237  46
2021 11 26 18  04 39 11.744   +53 41 17.86  .01411 0.9987 146.8 20.1 .246  45
2021 11 26 19  04 39 09.354   +53 39 00.52  .01422 0.9988 146.9 20.1 .256  44
2021 11 26 20  04 39 06.997   +53 36 45.18  .01434 0.9989 147.0 20.1 .265  43
2021 11 26 21  04 39 04.674   +53 34 31.78  .01445 0.9990 147.0 20.1 .275  42
2021 11 26 22  04 39 02.382   +53 32 20.30  .01456 0.9991 147.1 20.1 .285  41
2021 11 26 23  04 39 00.122   +53 30 10.67  .01467 0.9992 147.1 20.1 .295  40
2021 11 27 00  04 38 57.892   +53 28 02.86  .01479 0.9993 147.2 20.2 .305  39
2021 11 27 01  04 38 55.692   +53 25 56.82  .01490 0.9994 147.2 20.2 .316  38
2021 11 27 02  04 38 53.521   +53 23 52.52  .01501 0.9995 147.2 20.2 .326  37
2021 11 27 03  04 38 51.378   +53 21 49.91  .01512 0.9996 147.3 20.2 .336  37
2021 11 27 04  04 38 49.263   +53 19 48.96  .01523 0.9996 147.3 20.2 .347  36
2021 11 27 05  04 38 47.174   +53 17 49.62  .01535 0.9997 147.4 20.2 .357  35
2021 11 27 06  04 38 45.112   +53 15 51.87  .01546 0.9998 147.4 20.2 .367  35
2021 11 27 07  04 38 43.075   +53 13 55.66  .01557 0.9999 147.5 20.3 .378  34
2021 11 27 08  04 38 41.064   +53 12 00.97  .01568 1.0000 147.5 20.3 .389  34
2021 11 27 09  04 38 39.076   +53 10 07.76  .01579 1.0001 147.6 20.3 .399  33
2021 11 27 10  04 38 37.112   +53 08 16.00  .01591 1.0002 147.6 20.3 .410  33
2021 11 27 11  04 38 35.172   +53 06 25.65  .01602 1.0003 147.7 20.3 .420  32
2021 11 27 12  04 38 33.254   +53 04 36.68  .01613 1.0004 147.7 20.3 .431  32
2021 11 27 13  04 38 31.359   +53 02 49.08  .01624 1.0005 147.7 20.3 .442  31
2021 11 27 14  04 38 29.485   +53 01 02.80  .01636 1.0006 147.8 20.4 .452  31
2021 11 27 15  04 38 27.632   +52 59 17.81  .01647 1.0007 147.8 20.4 .463  31
2021 11 27 16  04 38 25.800   +52 57 34.11  .01658 1.0008 147.9 20.4 .473  30
2021 11 27 17  04 38 23.988   +52 55 51.64  .01669 1.0009 147.9 20.4 .484  30
2021 11 27 18  04 38 22.196   +52 54 10.40  .01680 1.0010 148.0 20.4 .495  30
2021 11 27 19  04 38 20.424   +52 52 30.35  .01692 1.0011 148.0 20.4 .505  29
2021 11 27 20  04 38 18.670   +52 50 51.46  .01703 1.0012 148.0 20.4 .516  29
2021 11 27 21  04 38 16.935   +52 49 13.73  .01714 1.0013 148.1 20.4 .526  29
2021 11 27 22  04 38 15.218   +52 47 37.12  .01725 1.0014 148.1 20.5 .537  28
2021 11 27 23  04 38 13.519   +52 46 01.60  .01737 1.0014 148.2 20.5 .548  28
2021 11 28 00  04 38 11.837   +52 44 27.17  .01748 1.0015 148.2 20.5 .558  28
2021 11 28 01  04 38 10.173   +52 42 53.79  .01759 1.0016 148.2 20.5 .569  28
2021 11 28 02  04 38 08.525   +52 41 21.44  .01770 1.0017 148.3 20.5 .579  27
2021 11 28 03  04 38 06.893   +52 39 50.11  .01781 1.0018 148.3 20.5 .590  27
2021 11 28 04  04 38 05.278   +52 38 19.78  .01793 1.0019 148.3 20.5 .600  27
2021 11 28 05  04 38 03.678   +52 36 50.42  .01804 1.0020 148.4 20.6 .610  27
2021 11 28 06  04 38 02.094   +52 35 22.02  .01815 1.0021 148.4 20.6 .621  27
2021 11 28 07  04 38 00.525   +52 33 54.55  .01826 1.0022 148.5 20.6 .631  26
2021 11 28 08  04 37 58.970   +52 32 28.01  .01838 1.0023 148.5 20.6 .641  26
2021 11 28 09  04 37 57.431   +52 31 02.37  .01849 1.0024 148.5 20.6 .652  26
2021 11 28 10  04 37 55.905   +52 29 37.61  .01860 1.0025 148.6 20.6 .662  26
2021 11 28 11  04 37 54.393   +52 28 13.72  .01871 1.0026 148.6 20.6 .672  26
2021 11 28 12  04 37 52.895   +52 26 50.68  .01883 1.0027 148.6 20.6 .682  25
2021 11 28 13  04 37 51.411   +52 25 28.48  .01894 1.0028 148.7 20.7 .693  25
2021 11 28 14  04 37 49.940   +52 24 07.10  .01905 1.0029 148.7 20.7 .703  25